Regional Weather Roundup
Issued by NWS

Home | Current Version | Previous Version | Text Only | Print | Product List | Glossary Off
Versions: 1 2 3 4 5 6 7 8 9 10 11 12 13 14 15 16 17 18 19 20 21 22 23 24 25 26 27 28 29 30 31 32 33 34 35 36 37 38 39 40 41 42 43 44 45 46 47 48 49 50

000
ASUS45 KSLC 180610
RWRUT

UTAH REGIONAL WEATHER ROUNDUP
NATIONAL WEATHER SERVICE SALT LAKE CITY UT
1200 AM MDT WED OCT 18 2017

UTZ001>011-023>025-180700-

NORTHERN UTAH

CITY           SKY/WX    TMP DP  RH WIND       PRES   REMARKS
BRIGHAM CITY   PTCLDY    42  30  62 CALM      30.16R
HILL AFB       PTCLDY    48  28  45 E6        30.16S
LOGAN          CLEAR     37  26  64 SW3       30.15S
OGDEN          PTCLDY    45  32  60 S8        30.15S
SALT LAKE CITY MOCLDY    49  34  56 CALM      30.16R
TOOELE VALLEY  MOCLDY    43  32  65 CALM      30.16R
WENDOVER       PTCLDY    42  25  50 S3        30.16R
WEST JORDAN    MOCLDY    45  29  54 CALM      30.17R

$$

UTZ011>015-024>027-180700-

CENTRAL/NORTHEAST UTAH

CITY           SKY/WX    TMP DP  RH WIND       PRES   REMARKS
PROVO AIRPORT  MOCLDY    46  31  55 N3        30.16R
MOAB/CANYONLAN PTCLDY    44  13  28 CALM      30.17S
DELTA          CLOUDY    46  21  36 CALM      30.14S
PRICE          MOCLDY    46   6  19 N9        30.23S
ROOSEVELT      CLOUDY    37  25  60 SW6       30.21F WCI  33
VERNAL         CLOUDY    43  21  41 NW6       30.19S

$$

UTZ013>016-019>022-027-180700-

SOUTHERN UTAH

CITY           SKY/WX    TMP DP  RH WIND       PRES   REMARKS
BRYCE CANYON   PTCLDY    36  16  44 W5        30.34S WCI  32
CEDAR CITY     PTCLDY    50  22  33 S3        30.20S
MILFORD        MOCLDY    52  19  27 S5        30.17R
ST GEORGE      MOCLDY    63  21  20 E7        30.07S
HANKSVILLE     CLOUDY    41  14  33 CALM      30.21R
BLANDING         N/A     45  11  25 N6        30.31S

$$

REGIONAL REPORTS     COLORADO/ARIZONA

CITY           SKY/WX    TMP DP  RH WIND       PRES   REMARKS
CRAIG, CO      CLOUDY    30  19  63 CALM      30.23F
GRAND JUNCTION CLOUDY    49  13  23 E6        30.20S
RIFLE, CO      CLOUDY    39  18  42 CALM      30.25S
MONTROSE, CO   CLOUDY    41  15  35 S6        30.27S
CORTEZ, CO     CLOUDY    34  16  47 NE9       30.26F WCI  27
COLORADO CITY    N/A     43  23  45 SE6       30.21S
PAGE, AZ       PTCLDY    57  20  23 CALM      30.15R
GRAND CANYON   PTCLDY    38  17  42 CALM      30.30S
KINGMAN, AZ    PTCLDY    68  31  25 CALM      30.09S
FLAGSTAFF, AZ  PTCLDY    40  20  44 CALM      30.32F

$$

REGIONAL REPORTS    NEVADA/IDAHO/WYOMING

CITY           SKY/WX    TMP DP  RH WIND       PRES   REMARKS
LAS VEGAS, NV  MOCLDY    69  24  18 W7        30.00F
ELY, NY        MOCLDY    39  -1  18 S6        30.25R WCI  35
ELKO, NV       PTCLDY    40  16  37 CALM      30.22R
POCATELLO, ID  CLEAR     49  23  36 S9        30.14S
BURLEY, ID     CLEAR     40  25  55 CALM      30.14R
FORT BRIDGER,    N/A     46   3  17 SW8       30.27S
EVANSTON, WY   CLOUDY    49   7  18 W7        30.25S
ROCK SPRINGS,  CLOUDY    45   2  17 SW10      30.20S
KEMMERER, WY   CLOUDY    41   7  24 N8        30.25S

$$



USA.gov is the U.S. government's official web portal to all federal, state and local government web resources and services.